GLOBALSTAR M077 [+]

Last updated on July 6, 2021, 3:36 p.m. UTC

1 37191U 10054D   21186.66638859 -.00000094  00000-0  52352-4 0  9995
2 37191  52.0048 167.0842 0000227   8.7367 162.2937 12.62268207494971
UTC
Height (km)
Latitude
Longitude
Inclination
Orbital Period
UTC large
Height (km)
Speed (km/s)
/
Latitude / Longitude
Inclination (degrees)
Orbital Period (minutes)
Azimuth
Elevation
Range (km)
Doppler Factor
iOS Compass Heading
iOS Angle